Showing default

OPS 8464 (TRANSIT 5B-7), 1514

Orbit data source: Space-Track

OPS 8464 (TRANSIT 5B-7), 1514 is a payload satellite owned by USN BuWeps (US) in LEO that was launched on Fri, 13 Aug 1965 UTC via a THOR ABLESTAR launch vehicle from the Air Force Western Test Range (AFWTR). Payload-class satellites include a variety of spacecraft equipped with specific instruments for various scientific and technological missions. These include communications satellites like Starlink; space stations such as the ISS; scientific satellites like the Hubble; Earth observation satellites from companies like Planet Labs, Umbra, and HawkEye 360; GPS; miniature CubeSats for education and research; and military/defense satellites.

Loading next visibility...
Identifier
1514, 1965-065F
Orbit
LEO
Country
Flag of USUS
Related business
Manufacturer
NAFI
Mission
Spacecraft
Bus & Motor
TRANSIT 5, Unknown motor
Mass
~54 kg wet, ~54 kg dry
Launch date (UTC)
1965-08-13 (61 years ago)
Launch vehicle
THOR ABLESTAR
Launch site
Air Force Western Test Range (AFWTR)
Object type
Payload
Rocket body
Debris
Shape & HBR
Unknown
Radar Cross Section
Large (>1 m²)

Expand to show TLE details & history
Last TLE update: 9 hours ago

TLE from 9 hours ago
0 OPS 8464 (TRANSIT 5B-7)
1  1514U 65065F   26170.72375507  .00000082  00000-0  14054-3 0  9992
2  1514  89.9965 227.8978 0071272 152.0809 328.7809 13.35371112961602
Epoch: 2026-06-19T17:22Z
TLE epoch observation values (Epoch: 2026-06-19T17:22:12.438Z)
Latitude
59.65502°
Longitude
-120.6086°
Altitude
1,091.131 km
Speed
7.334 km/s
True Right ascension
03h 11m 34s
True Declination
59° 30' 42"
Sunlit
Object was in daylight at epoch
Visualization orbit readout
Latitude
Unknown
Longitude
Unknown
Altitude
Unknown
Speed
Unknown
Apparent Right ascension
Unknown
Apparent Declination
Unknown
Sunlit
N/A
Visualization observer readout
Local Sidereal Time
13:04:03
Azimuth
Unknown
Elevation
Unknown
Doppler factor
Unknown
Orbital elements
Apogee altitude
1,177.11 km
Perigee altitude
1,070.176 km
Semi-major axis
7,501.78 km
Eccentricity
0.00713
Inclination
89.9965°
RAAN
227.8978°
Arg. of periapsis
152.0809°
True anomaly
328.35434°
Mean anomaly
328.7809°
Eccentric anomaly
328.56795°
Mean motion
3.34039 °/min
Orbital period
107.77 mins
BSTAR
0.00014054
Loading maneuver chart data...
Computing Atmospheric mass density...
Loading historical data...
Loading historical data...
Loading historical data...
Loading historical data...
Loading historical data...
Loading historical data...
Loading historical data...

Documentation

Showing up to 5 results
|